リニア彗星

P/2003 O3 ( LINEAR )

English version
Home page
Updated on May 23, 2004

---------------------------------------------------------------------

・ プロフィール

発見日 2003年7月30日
発見光度 18.9等
発見者 Lincoln Laboratory Near-Earth Asteroid Research project

・ 写真集

・ 軌道要素

Epoch 2003 Aug. 29.0 TT = JDT 2452880.5
T 2003 Aug. 14.06385 TT                                 MPC
q   1.2464047            (2000.0)            P               Q
n   0.18010159     Peri.    0.76319     +0.95243231     +0.30123465
a   3.1054487      Node   341.50213     -0.28036800     +0.80676188
e   0.5986394      Incl.    8.36504     -0.11944238     +0.50832367
P   5.47

・ 星図

・ 光度変化

        m1 = 18.5 + 5 logΔ + 10.0 log r

---------------------------------------------------------------------

軌道要素はM.P.E.C. 2003-T41に掲載されたものです。
星図は StellaNavigator Ver.2.0 for Windows (アストロアーツ 編著 / アスキー出版局刊) で作成したものです。
光度グラフはComet for Windowsで作成したものです。

---------------------------------------------------------------------

Copyright(C) Seiichi Yoshida (comet@aerith.net). All rights reserved.